[[[{"header":{"parameterUnit":"kt","parameterCategory":2,"dx":1,"dy":1,"la1":30.253999710083008,"la2":30.299108505249023,"lo1":-89.0895004272461,"lo2":-89.04439544677734,"nx":28,"ny":28,"refTime":"2022-10-19T09:00:00:Z","depth":0,"parameterNumber":1,"parameterNumberName":"U-component_of_WINDS"},"data":[7.705,7.7207,7.7178,7.7343,7.7345,7.7452,7.7481,7.7516,7.7537,7.7661,7.7728,7.7717,7.7727,7.78,7.787,7.7863,7.7892,7.7965,7.7943,7.7643,7.7599,7.7557,7.7514,7.7974,7.7975,7.8254,7.8257,7.8259,7.6818,7.6822,7.6904,7.6963,7.7031,7.6941,7.6982,7.7044,7.7144,7.7173,7.7239,7.7348,7.7431,7.7417,7.7492,7.7562,7.7523,7.7584,7.7573,7.7575,7.7255,7.721,7.7613,7.7613,7.7613,7.7613,7.7613,7.7612,7.6388,7.6486,7.6504,7.6593,7.6616,7.6657,7.6744,7.6728,7.6809,7.6885,7.684,7.6953,7.6977,7.7057,7.7078,7.7164,7.7092,7.715,7.7162,7.7175,7.719,7.6772,7.7178,7.7176,7.7175,7.7174,7.7173,0,7.6062,7.6031,7.611,7.6179,7.6243,7.6295,7.6339,7.6394,7.6323,7.6394,7.6492,7.6545,7.6649,7.6738,7.6805,7.6815,7.6727,7.6721,7.6758,7.6774,7.6779,7.6768,7.6238,7.6708,7.6704,7.6701,7.6698,7.6697,7.5616,7.5739,7.5749,7.5807,7.5825,7.5924,7.5976,7.5905,7.5964,7.6008,7.6099,7.619,7.6258,7.6424,7.6405,7.6484,7.6441,7.6622,7.6453,7.6464,7.6432,7.6422,7.6429,7.6653,7.6659,7.6663,7.6667,0,7.5366,7.5322,7.5503,7.5503,7.5507,7.5638,7.5636,7.5734,7.571,7.584,7.5867,7.583,7.593,7.5883,7.5992,7.5963,7.6169,7.6131,7.6155,7.6142,7.6291,7.6274,7.6804,7.6866,7.6399,7.6404,7.6407,0,7.4965,7.5131,7.5053,7.5162,7.5341,7.5265,7.5445,7.5442,7.5464,7.5566,7.5463,7.5561,7.5487,7.5578,7.5538,7.57,7.5723,7.5708,7.5693,7.5712,7.5713,7.5737,7.5711,7.567,7.5667,7.5665,7.5663,0,7.457,7.473,7.4906,7.4934,7.4953,7.5038,7.505,7.5076,7.5131,7.5195,7.5227,7.531,7.5353,7.5416,7.5362,7.5248,7.5563,7.5395,7.5546,7.5547,7.5613,7.5608,7.6095,7.5659,7.5659,7.5658,7.5657,0,7.4238,7.4305,7.4572,7.4581,7.4626,7.4746,7.4817,7.4909,7.4945,7.4926,7.4977,7.4901,7.5047,7.4881,7.5077,7.4942,7.4989,7.4991,7.5001,7.5004,7.4818,7.5087,7.5564,7.5606,7.5014,7.5009,7.5004,0,7.3792,7.4053,7.3989,7.4247,7.4359,7.4229,7.436,7.4397,7.4383,7.4475,7.446,7.4569,7.4437,7.4464,7.4569,7.4556,7.4733,7.4533,7.4657,7.4663,7.464,7.5081,7.5158,7.5466,7.4935,7.4942,7.4948,0,7.3441,7.3466,7.3518,7.3543,7.3583,7.368,7.3834,7.3924,7.3987,7.4046,7.4167,7.4326,7.4227,7.4276,7.4225,7.4336,7.4611,7.4218,7.4217,7.4282,7.4901,7.4971,7.5024,7.4551,7.456,7.4566,7.4893,0,7.2928,7.3058,7.3197,7.327,7.3338,7.3502,7.3452,7.353,7.347,7.3452,7.3637,7.3662,7.3757,7.3809,7.3757,7.4029,7.3974,7.3872,7.3702,7.3996,7.4101,7.4145,7.3548,7.3543,7.3539,7.3535,0,0,7.2507,7.2692,7.2621,7.2769,7.282,7.2686,7.2863,7.29,7.2979,7.3017,7.2923,7.3148,7.3173,7.3402,7.349,7.3534,7.3575,7.3477,7.3859,7.3895,7.3929,7.4043,7.409,7.3527,7.3526,7.3524,7.3523,0,7.2308,7.2339,7.2518,7.2551,7.2599,7.2572,7.2616,7.264,7.2638,7.2823,7.2708,7.2815,7.3004,7.3039,7.3083,7.3449,7.3355,7.3485,7.3692,7.3817,7.3859,7.3896,7.4017,7.4063,7.3512,7.3513,7.3513,0,7.1945,7.1963,7.2047,7.2166,7.2198,7.2322,7.2131,7.2275,7.2365,7.2213,7.2399,7.2407,7.2456,7.2685,7.2786,7.2703,7.3156,7.301,7.3037,7.3045,7.3163,7.3214,7.326,7.266,7.2658,7.2655,0,0,7.178,7.1902,7.1901,7.212,7.2147,7.2112,7.2176,7.2124,7.2171,7.2191,7.2199,7.2249,7.2354,7.2427,7.2526,7.2786,7.2786,7.2907,7.2947,7.298,7.3007,7.3134,7.3184,7.2645,7.2644,7.2644,0,0,7.1701,7.1706,7.1639,7.1888,7.1936,7.1949,7.2084,7.2001,7.2086,7.2061,7.1982,7.1993,7.2206,7.222,7.2084,7.2462,7.2297,7.2329,7.2445,7.2495,7.2534,7.2523,7.1891,0,0,0,0,0,7.1471,7.1704,7.1643,7.1678,7.1832,7.1984,7.2002,7.1941,7.1822,7.1929,7.1921,7.182,7.2128,7.2005,7.2041,7.2192,7.2508,7.2532,7.2555,7.2765,7.2818,7.2863,0,0,0,0,0,0,7.1484,7.1527,7.1637,7.1662,7.1696,7.1975,7.1758,7.1747,7.1809,7.1786,7.1824,7.1821,7.1772,7.1983,7.2016,7.2161,7.188,7.2517,7.2538,7.2557,7.2784,7.2827,7.2864,0,0,0,0,0,7.1494,7.1528,7.1793,7.1658,7.1687,7.1661,7.1749,7.1738,7.1784,7.1776,7.1769,7.1733,7.1778,7.1802,7.2002,7.2147,7.1857,7.1869,7.2531,7.2547,7.2562,7.2805,0,0,0,0,0,0,7.1502,7.152,7.1797,7.1804,7.1566,7.1644,7.1655,7.1731,7.1769,7.1765,7.1679,7.1661,7.1786,7.1802,7.1821,7.2146,7.1838,7.1851,7.1858,7.2543,7.2556,7.2567,0,0,0,0,0,0,7.1501,7.1527,7.18,7.1687,7.168,7.1629,7.1639,7.1802,7.1771,7.1669,7.1655,7.167,7.1757,7.1804,7.1818,7.2076,7.1823,7.1835,7.1844,7.1849,7.2554,7.2563,0,0,0,0,0,0,7.151,7.1533,7.1685,7.168,7.1673,7.1743,7.1772,7.1934,7.1674,7.167,7.1648,7.1637,7.1763,7.1775,7.1817,7.207,7.2075,7.1824,7.1832,7.1838,7.1842,0,0,0,0,0,0,0,7.1518,7.1386,7.1758,7.1674,7.1668,7.1865,7.1867,7.1868,7.1671,7.1661,7.1651,7.1642,7.1753,7.1767,7.178,7.2065,0,0,7.1822,7.1828,0,0,0,0,0,0,0,0,7.1375,7.1384,7.1758,7.1759,7.1761,7.1865,7.1867,7.1868,7.1669,7.1661,7.1653,7.1646,7.1757,7.1768,7.1779,0,0,0,0,0,0,0,0,0,0,0,0,0,0,0,7.1758,7.1759,0,7.1865,7.1867,7.1868,7.1668,7.1662,7.1655,7.1649,7.176,7.1769,7.1778,0,0,0,0,0,0,0,0,0,0,0,0,0,0,0,0,0,0,0,0,0,0,0,0,0,0,0,0,0,0,0,0,0,0,0,0,0,0,0,0,0,0,0,0,0,0,0,0,0,0,0,0,0,0,0,0,0,0,0,0,0,0,0,0,0,0,0,0,0]}],[{"header":{"parameterUnit":"kt","parameterCategory":2,"dx":1,"dy":1,"la1":30.253999710083008,"la2":30.299108505249023,"lo1":-89.0895004272461,"lo2":-89.04439544677734,"nx":28,"ny":28,"refTime":"2022-10-19T09:00:00:Z","depth":0,"parameterNumber":2,"parameterNumberName":"V-component_of_WINDS"},"data":[1.2773,1.2818,1.2787,1.2823,1.2802,1.2821,1.2818,1.281,1.2797,1.2816,1.2821,1.2795,1.277,1.2768,1.2772,1.276,1.2762,1.2799,1.2778,1.2644,1.2623,1.2603,1.259,1.28,1.2801,1.292,1.2921,1.2922,1.267,1.2649,1.2661,1.2651,1.266,1.2605,1.2593,1.2604,1.2623,1.2608,1.2612,1.2627,1.2635,1.2597,1.2598,1.2617,1.2591,1.2619,1.2616,1.2612,1.2468,1.2454,1.264,1.264,1.264,1.2639,1.2639,1.2639,1.2474,1.2503,1.2479,1.2491,1.2479,1.2473,1.2495,1.2462,1.2474,1.2473,1.2436,1.2458,1.2437,1.2426,1.2415,1.243,1.2393,1.2415,1.2419,1.2425,1.2433,1.2258,1.243,1.2429,1.2428,1.2428,1.2427,0,1.232,1.2293,1.2303,1.2303,1.2311,1.2309,1.2302,1.2315,1.2248,1.2261,1.2276,1.2279,1.2287,1.2297,1.2293,1.2278,1.2222,1.2215,1.2229,1.2245,1.2258,1.2247,1.201,1.221,1.2208,1.2207,1.2206,1.2205,1.2117,1.2157,1.2119,1.213,1.2119,1.2139,1.2144,1.2082,1.2091,1.2074,1.2103,1.2113,1.2118,1.2148,1.2111,1.2117,1.2089,1.2168,1.209,1.2103,1.2086,1.2083,1.2084,1.2184,1.2187,1.2189,1.2191,0,1.2004,1.1956,1.2008,1.1967,1.1958,1.2003,1.1967,1.1995,1.1962,1.1995,1.1999,1.1948,1.1964,1.1914,1.1925,1.1898,1.1965,1.1941,1.197,1.1961,1.2024,1.2017,1.2243,1.2268,1.2052,1.2055,1.2056,0,1.181,1.1866,1.1789,1.1823,1.1881,1.1818,1.1877,1.1854,1.1837,1.1863,1.1793,1.1818,1.1752,1.1769,1.1731,1.1778,1.1781,1.1762,1.175,1.1767,1.1769,1.1769,1.1758,1.1728,1.1727,1.1726,1.1725,0,1.1637,1.1664,1.1717,1.1715,1.1679,1.1706,1.1692,1.1673,1.168,1.1681,1.1684,1.1692,1.1695,1.17,1.165,1.1599,1.1708,1.1627,1.1688,1.169,1.1715,1.1713,1.1927,1.1724,1.1724,1.1723,1.1723,0,1.1473,1.1475,1.1563,1.1529,1.1539,1.1576,1.1577,1.1597,1.1582,1.156,1.1561,1.1509,1.155,1.1471,1.1524,1.1471,1.1477,1.1464,1.1468,1.1466,1.138,1.1503,1.1715,1.1733,1.1466,1.1464,1.1462,0,1.1285,1.1361,1.1307,1.1392,1.142,1.1337,1.1377,1.1367,1.1341,1.136,1.1331,1.1355,1.1287,1.1287,1.132,1.1291,1.1361,1.128,1.1305,1.1307,1.1308,1.1502,1.1545,1.1674,1.1434,1.1437,1.1439,0,1.1133,1.1091,1.111,1.1104,1.1082,1.1107,1.1154,1.1163,1.1178,1.1178,1.1213,1.1248,1.1195,1.1199,1.1159,1.1196,1.1312,1.1136,1.1135,1.1166,1.1418,1.1457,1.1479,1.1276,1.1279,1.1282,1.1417,0,1.0888,1.0922,1.0973,1.0968,1.0979,1.1032,1.098,1.0999,1.0957,1.0928,1.0982,1.0965,1.0977,1.0991,1.0953,1.1055,1.103,1.0977,1.0896,1.1026,1.1069,1.1087,1.0835,1.0833,1.083,1.0829,0,0,1.0719,1.0766,1.0708,1.0752,1.0758,1.0673,1.0733,1.073,1.0726,1.0731,1.0686,1.0733,1.0722,1.0793,1.083,1.0837,1.0849,1.0808,1.0965,1.0981,1.0995,1.1042,1.1062,1.0825,1.0824,1.0823,1.0822,0,1.0618,1.0608,1.067,1.0663,1.0651,1.0618,1.0633,1.0607,1.0592,1.0647,1.0577,1.0604,1.0647,1.0642,1.0645,1.0798,1.0743,1.0806,1.0903,1.0945,1.0963,1.0979,1.103,1.1049,1.0817,1.0817,1.0818,0,1.0457,1.0437,1.0462,1.0474,1.0467,1.05,1.0402,1.0444,1.0467,1.0375,1.0431,1.0416,1.0407,1.0483,1.0516,1.0476,1.0649,1.0588,1.0601,1.0603,1.0641,1.0663,1.0683,1.0422,1.042,1.0419,0,0,1.0377,1.0409,1.0371,1.0449,1.0449,1.0402,1.0416,1.0377,1.0371,1.0369,1.0348,1.0344,1.0367,1.0384,1.0404,1.0496,1.0488,1.0541,1.056,1.0575,1.0586,1.0628,1.0651,1.0415,1.0415,1.0415,0,0,1.0339,1.0296,1.0256,1.0341,1.0337,1.0305,1.0355,1.0304,1.0317,1.0306,1.0242,1.0239,1.031,1.0298,1.0244,1.0374,1.0295,1.0308,1.0379,1.0402,1.042,1.042,1.0142,0,0,0,0,0,1.021,1.0301,1.0265,1.0271,1.0289,1.0325,1.0327,1.0276,1.022,1.026,1.0233,1.0176,1.0255,1.0205,1.0213,1.0274,1.0357,1.0367,1.0377,1.049,1.0515,1.0535,0,0,0,0,0,0,1.0212,1.022,1.0262,1.0235,1.0238,1.0321,1.0215,1.0203,1.0214,1.0202,1.0183,1.0175,1.0133,1.0198,1.0206,1.0265,1.014,1.0361,1.037,1.0378,1.0498,1.0518,1.0536,0,0,0,0,0,1.0213,1.022,1.0262,1.0233,1.0236,1.019,1.0211,1.02,1.0208,1.0169,1.016,1.0169,1.0137,1.014,1.0202,1.0262,1.0134,1.0137,1.0367,1.0374,1.038,1.0508,0,0,0,0,0,0,1.0214,1.0211,1.0261,1.026,1.0195,1.0184,1.0181,1.0199,1.0173,1.0165,1.0152,1.0142,1.014,1.0142,1.0145,1.0264,1.0129,1.0132,1.0134,1.0372,1.0377,1.0382,0,0,0,0,0,0,1.0207,1.0211,1.0261,1.0216,1.0209,1.0179,1.0176,1.0223,1.0174,1.0157,1.0148,1.0148,1.0136,1.0144,1.0146,1.0221,1.0125,1.0128,1.0131,1.0132,1.0376,1.0381,0,0,0,0,0,0,1.0208,1.0211,1.0216,1.0211,1.0204,1.0189,1.022,1.0241,1.0135,1.0159,1.0124,1.0119,1.014,1.014,1.0147,1.0222,1.0221,1.0125,1.0128,1.0129,1.013,0,0,0,0,0,0,0,1.0208,1.0199,1.0267,1.0206,1.0201,1.0251,1.025,1.025,1.0134,1.0129,1.0125,1.0121,1.0108,1.0111,1.0115,1.0223,0,0,1.0125,1.0127,0,0,0,0,0,0,0,0,1.0196,1.0198,1.0267,1.0267,1.0267,1.0251,1.025,1.025,1.0133,1.013,1.0126,1.0123,1.0109,1.0111,1.0114,0,0,0,0,0,0,0,0,0,0,0,0,0,0,0,1.0267,1.0267,0,1.0251,1.025,1.025,1.0133,1.013,1.0127,1.0124,1.011,1.0112,1.0114,0,0,0,0,0,0,0,0,0,0,0,0,0,0,0,0,0,0,0,0,0,0,0,0,0,0,0,0,0,0,0,0,0,0,0,0,0,0,0,0,0,0,0,0,0,0,0,0,0,0,0,0,0,0,0,0,0,0,0,0,0,0,0,0,0,0,0,0,0]}]]]